STARLINK-33754, 63487

Orbit data source: Space-Track

STARLINK-33754, 63487 is a payload satellite owned by SpaceX/Seattle (US) in LEO that was launched on Sun, 06 Apr 2025 UTC via an FALCON 9 launch vehicle from the Air Force Eastern Test Range (AFETR). Payload-class satellites include a variety of spacecraft equipped with specific instruments for various scientific and technological missions. These include communications satellites like Starlink; space stations such as the ISS; scientific satellites like the Hubble; Earth observation satellites from companies like Planet Labs, Umbra, and HawkEye 360; GPS; miniature CubeSats for education and research; and military/defense satellites.

Loading next visibility...
Identifier
63487, 2025-070AD
Orbit
LEO
Country
Flag of USUS
Related business
Manufacturer
SpaceX/Seattle
Mission
Operational Commercial Communications
Bus & Motor
STARLINK V2MO, Unknown motor
Mass
575 kg wet, ~530 kg dry
Launch date (UTC)
2025-04-06 (1 year ago)
Launch vehicle
FALCON 9
Launch site
Air Force Eastern Test Range (AFETR)
Object type
Payload
Rocket body
Debris
Shape & HBR
Box + 2 Pan, 17.7 m
Radar Cross Section
36.964 m², Large (>1 m²)

Expand to show TLE details & history
Last TLE update: 7 hours ago

TLE from 7 hours ago
0 STARLINK-33754
1 63487U 25070AD  26170.02748876  .00010595  00000-0  39403-3 0  9992
2 63487  43.0009  47.5760 0001290 257.7395 102.3312 15.27577149 68470
Epoch: 2026-06-19T00:39Z
TLE epoch observation values (Epoch: 2026-06-19T00:39:35.028Z)
Latitude
-0.00005°
Longitude
130.41764°
Altitude
483.022 km
Speed
7.626 km/s
True Right ascension
03h 10m 18s
True Declination
0° 00' 00"
Sunlit
Object was in daylight at epoch
Visualization orbit readout
Latitude
Unknown
Longitude
Unknown
Altitude
Unknown
Speed
Unknown
Apparent Right ascension
Unknown
Apparent Declination
Unknown
Sunlit
N/A
Visualization observer readout
Local Sidereal Time
18:40:39
Azimuth
Unknown
Elevation
Unknown
Doppler factor
Unknown
Orbital elements
Apogee altitude
485.888 km
Perigee altitude
484.117 km
Semi-major axis
6,863.14 km
Eccentricity
0.00013
Inclination
43.0009°
RAAN
47.576°
Arg. of periapsis
257.7395°
True anomaly
102.34564°
Mean anomaly
102.3312°
Eccentric anomaly
102.33842°
Mean motion
3.81732 °/min
Orbital period
94.31 mins
BSTAR
0.00039403
Loading maneuver chart data...
Computing Atmospheric mass density...
Loading historical data...
Loading historical data...
Loading historical data...
Loading historical data...
Loading historical data...
Loading historical data...
Loading historical data...

Documentation

Showing up to 5 results
|